| time (UTC) | temp F | wind direction | speed MPH | gust MPH | rain 1hr in | rain 24hr in | rain mn in | humidity % | barometer mb |
| 20260903133517 | 56 | 0 | 0.0 | 0.0 | 0.00 | 0.01 | 0.00 | 84 | 1006.4 |
| 20260903132516 | 56 | 0 | 1.0 | 4.0 | 0.00 | 0.01 | 0.00 | 84 | 1006.4 |
| 20260903131517 | 56 | 0 | 0.0 | 3.0 | 0.00 | 0.01 | 0.00 | 85 | 1006.4 |
| 20260903130536 | 56 | 0 | 0.0 | 0.0 | 0.00 | 0.01 | 0.00 | 84 | 1006.2 |
| 20260903125516 | 56 | 0 | 0.0 | 0.0 | 0.00 | 0.01 | 0.00 | 84 | 1006.0 |
| 20260903124516 | 56 | 0 | 0.0 | 0.0 | 0.00 | 0.01 | 0.00 | 84 | 1006.0 |
| 20260903123537 | 56 | 0 | 0.0 | 0.0 | 0.00 | 0.01 | 0.00 | 83 | 1006.0 |
| 20260903122517 | 56 | 0 | 1.0 | 4.0 | 0.00 | 0.01 | 0.00 | 84 | 1005.9 |
| 20260903121516 | 56 | 0 | 0.0 | 2.0 | 0.00 | 0.01 | 0.00 | 84 | 1005.9 |
| 20260903120516 | 56 | 0 | 1.0 | 6.0 | 0.00 | 0.01 | 0.00 | 84 | 1005.6 |
| 20260903115536 | 56 | 0 | 0.0 | 4.0 | 0.00 | 0.01 | 0.00 | 82 | 1005.4 |
| 20260903114516 | 56 | 0 | 2.0 | 7.0 | 0.00 | 0.01 | 0.00 | 82 | 1005.4 |
| 20260903113517 | 56 | 315 | 1.0 | 5.0 | 0.00 | 0.01 | 0.00 | 81 | 1005.3 |
| 20260903112516 | 56 | 113 | 2.0 | 7.0 | 0.00 | 0.01 | 0.00 | 81 | 1004.8 |
| 20260903111517 | 56 | 180 | 3.0 | 11.0 | 0.00 | 0.01 | 0.00 | 82 | 1004.8 |
| 20260903110517 | 56 | 158 | 3.0 | 15.0 | 0.00 | 0.01 | 0.00 | 84 | 1004.6 |
| 20260903105556 | 56 | 225 | 4.0 | 13.0 | 0.00 | 0.01 | 0.00 | 84 | 1004.5 |
| 20260903104536 | 56 | 180 | 3.0 | 9.0 | 0.00 | 0.01 | 0.00 | 84 | 1004.5 |
| 20260903103536 | 56 | 180 | 4.0 | 13.0 | 0.00 | 0.01 | 0.00 | 84 | 1004.5 |
| 20260903102516 | 56 | 158 | 3.0 | 10.0 | 0.00 | 0.01 | 0.00 | 84 | 1004.4 |
| 20260903101536 | 56 | 158 | 3.0 | 13.0 | 0.00 | 0.01 | 0.00 | 84 | 1004.4 |
| 20260903100516 | 56 | 180 | 3.0 | 11.0 | 0.00 | 0.01 | 0.00 | 83 | 1004.6 |
| 20260903095516 | 56 | 180 | 3.0 | 15.0 | 0.00 | 0.01 | 0.00 | 83 | 1004.7 |
| 20260903094536 | 56 | 203 | 2.0 | 9.0 | 0.00 | 0.01 | 0.00 | 83 | 1004.7 |
| 20260903093516 | 56 | 180 | 2.0 | 7.0 | 0.00 | 0.01 | 0.00 | 84 | 1004.8 |
| 20260903092516 | 56 | 293 | 3.0 | 14.0 | 0.00 | 0.01 | 0.00 | 84 | 1004.9 |
| 20260903091516 | 55 | 0 | 2.0 | 9.0 | 0.00 | 0.01 | 0.00 | 85 | 1004.9 |
| 20260903090536 | 55 | 225 | 3.0 | 13.0 | 0.00 | 0.01 | 0.00 | 85 | 1004.8 |
| 20260903085521 | 54 | 248 | 0.0 | 4.0 | 0.00 | 0.01 | 0.00 | 84 | 1004.9 |
| 20260903084536 | 54 | 225 | 0.0 | 4.0 | 0.00 | 0.01 | 0.00 | 83 | 1004.9 |
| 20260903083516 | 54 | 225 | 0.0 | 4.0 | 0.00 | 0.01 | 0.00 | 82 | 1004.9 |
| 20260903082516 | 54 | 225 | 1.0 | 7.0 | 0.00 | 0.01 | 0.00 | 83 | 1004.9 |
| 20260903081516 | 54 | 225 | 2.0 | 12.0 | 0.00 | 0.01 | 0.00 | 84 | 1004.9 |
| 20260903080516 | 54 | 203 | 2.0 | 6.0 | 0.00 | 0.01 | 0.00 | 86 | 1004.6 |
| 20260903075536 | 53 | 225 | 1.0 | 8.0 | 0.00 | 0.01 | 0.00 | 88 | 1004.5 |
| 20260903074516 | 53 | 225 | 1.0 | 5.0 | 0.00 | 0.01 | 0.00 | 88 | 1004.5 |
| 20260903073516 | 53 | 225 | 1.0 | 4.0 | 0.00 | 0.01 | 0.00 | 90 | 1004.7 |
| 20260903072516 | 52 | 225 | 0.0 | 3.0 | 0.00 | 0.01 | 0.00 | 90 | 1004.7 |
| 20260903071536 | 51 | 225 | 0.0 | 0.0 | 0.00 | 0.01 | 0.00 | 91 | 1004.7 |
| 20260903070516 | 51 | 225 | 1.0 | 6.0 | 0.00 | 0.01 | 0.00 | 92 | 1004.7 |
| 20260903065555 | 50 | 180 | 0.0 | 1.0 | 0.00 | 0.01 | 0.01 | 92 | 1004.5 |
| 20260903064516 | 50 | 180 | 0.0 | 2.0 | 0.00 | 0.01 | 0.01 | 93 | 1004.5 |
| 20260903063516 | 50 | 180 | 0.0 | 2.0 | 0.00 | 0.01 | 0.01 | 93 | 1004.5 |
| 20260903062516 | 50 | 180 | 0.0 | 1.0 | 0.00 | 0.01 | 0.01 | 93 | 1004.5 |
| 20260903061515 | 50 | 180 | 0.0 | 1.0 | 0.00 | 0.01 | 0.01 | 93 | 1004.5 |
| 20260903060516 | 50 | 180 | 1.0 | 4.0 | 0.00 | 0.01 | 0.01 | 93 | 1004.4 |
| 20260903055515 | 51 | 180 | 0.0 | 4.0 | 0.00 | 0.01 | 0.01 | 93 | 1004.4 |
| 20260903054515 | 50 | 180 | 0.0 | 1.0 | 0.00 | 0.01 | 0.01 | 92 | 1004.4 |
| 20260903053516 | 50 | 170 | 0.0 | 0.0 | 0.00 | 0.01 | 0.01 | 92 | 1004.5 |
| 20260903052537 | 51 | 170 | 0.0 | 0.0 | 0.00 | 0.01 | 0.01 | 92 | 1004.5 |
| 20260903051517 | 51 | 170 | 0.0 | 0.0 | 0.00 | 0.01 | 0.01 | 92 | 1004.5 |
| 20260903050517 | 51 | 170 | 0.0 | 0.0 | 0.00 | 0.01 | 0.01 | 91 | 1004.3 |
| 20260903045517 | 52 | 170 | 0.0 | 0.0 | 0.00 | 0.01 | 0.01 | 91 | 1004.3 |
| 20260903044517 | 52 | 170 | 0.0 | 0.0 | 0.00 | 0.01 | 0.01 | 91 | 1004.3 |
| 20260903043517 | 53 | 170 | 0.0 | 0.0 | 0.00 | 0.01 | 0.01 | 91 | 1004.2 |
| 20260903042517 | 53 | 170 | 0.0 | 0.0 | 0.00 | 0.01 | 0.01 | 90 | 1004.0 |
| 20260903041537 | 54 | 170 | 0.0 | 0.0 | 0.00 | 0.01 | 0.01 | 90 | 1004.0 |
| 20260903040517 | 54 | 170 | 0.0 | 0.0 | 0.00 | 0.01 | 0.01 | 89 | 1003.8 |
| 20260903035517 | 54 | 170 | 0.0 | 0.0 | 0.00 | 0.01 | 0.01 | 89 | 1003.7 |
| 20260903034517 | 55 | 180 | 0.0 | 1.0 | 0.00 | 0.01 | 0.01 | 88 | 1003.8 |
| 20260903033517 | 55 | 180 | 0.0 | 1.0 | 0.00 | 0.01 | 0.01 | 86 | 1003.3 |
| 20260903032517 | 56 | 170 | 0.0 | 0.0 | 0.00 | 0.01 | 0.01 | 85 | 1003.0 |
| 20260903031515 | 57 | 170 | 0.0 | 0.0 | 0.00 | 0.01 | 0.01 | 84 | 1003.0 |
| 20260903030517 | 57 | 170 | 0.0 | 0.0 | 0.00 | 0.01 | 0.01 | 81 | 1002.5 |
| 20260903025517 | 58 | 180 | 0.0 | 2.0 | 0.00 | 0.01 | 0.01 | 81 | 1002.2 |
| 20260903024517 | 59 | 170 | 0.0 | 0.0 | 0.00 | 0.01 | 0.01 | 81 | 1002.2 |
| 20260903023517 | 59 | 170 | 0.0 | 0.0 | 0.00 | 0.01 | 0.01 | 80 | 1001.6 |
| 20260903022517 | 60 | 180 | 1.0 | 7.0 | 0.00 | 0.01 | 0.01 | 81 | 1001.5 |
| 20260903021517 | 60 | 203 | 2.0 | 7.0 | 0.00 | 0.01 | 0.01 | 81 | 1001.5 |
| 20260903020517 | 60 | 203 | 2.0 | 9.0 | 0.00 | 0.01 | 0.01 | 80 | 1001.2 |
| 20260903015517 | 60 | 158 | 1.0 | 3.0 | 0.00 | 0.01 | 0.01 | 82 | 1000.6 |
| 20260903014517 | 59 | 180 | 3.0 | 11.0 | 0.00 | 0.01 | 0.01 | 84 | 1000.6 |
| 20260903013517 | 59 | 158 | 4.0 | 14.0 | 0.00 | 0.01 | 0.01 | 84 | 1000.1 |
| 20260903012537 | 59 | 158 | 3.0 | 15.0 | 0.00 | 0.01 | 0.01 | 85 | 1000.1 |
| 20260903011517 | 59 | 158 | 3.0 | 10.0 | 0.00 | 0.01 | 0.01 | 85 | 1000.1 |
| 20260903010517 | 59 | 135 | 5.0 | 18.0 | 0.00 | 0.01 | 0.01 | 86 | 1000.0 |
| 20260903005537 | 59 | 180 | 4.0 | 18.0 | 0.00 | 0.01 | 0.01 | 86 | 1000.0 |
| 20260903004517 | 58 | 158 | 4.0 | 17.0 | 0.01 | 0.01 | 0.01 | 87 | 1000.0 |
| 20260903003517 | 58 | 23 | 4.0 | 13.0 | 0.01 | 0.01 | 0.01 | 87 | 1000.1 |
| 20260903002556 | 58 | 180 | 5.0 | 16.0 | 0.01 | 0.01 | 0.01 | 87 | 1000.1 |
| 20260903001517 | 58 | 180 | 5.0 | 14.0 | 0.01 | 0.01 | 0.01 | 88 | 1000.1 |
| 20260903000517 | 58 | 158 | 6.0 | 22.0 | 0.01 | 0.01 | 0.01 | 88 | 1000.1 |
| 20260902235516 | 58 | 158 | 5.0 | 17.0 | 0.01 | 0.01 | 0.01 | 88 | 1000.6 |
| 20260902234517 | 58 | 135 | 4.0 | 16.0 | 0.00 | 0.00 | 0.00 | 87 | 1000.6 |
| 20260902233536 | 58 | 180 | 5.0 | 15.0 | 0.00 | 0.00 | 0.00 | 86 | 1000.5 |
| 20260902232537 | 58 | 180 | 7.0 | 22.0 | 0.00 | 0.00 | 0.00 | 85 | 1000.7 |
| 20260902231517 | 59 | 180 | 4.0 | 20.0 | 0.00 | 0.00 | 0.00 | 84 | 1000.7 |
| 20260902230516 | 59 | 180 | 6.0 | 19.0 | 0.00 | 0.00 | 0.00 | 83 | 1000.6 |
| 20260902225517 | 59 | 45 | 5.0 | 13.0 | 0.00 | 0.00 | 0.00 | 82 | 1000.4 |
| 20260902224517 | 59 | 180 | 5.0 | 21.0 | 0.00 | 0.00 | 0.00 | 79 | 1000.4 |
| 20260902223517 | 60 | 180 | 6.0 | 22.0 | 0.00 | 0.00 | 0.00 | 76 | 1000.7 |
| 20260902222516 | 62 | 158 | 5.0 | 18.0 | 0.00 | 0.00 | 0.00 | 70 | 1001.1 |
| 20260902221516 | 62 | 203 | 6.0 | 12.0 | 0.00 | 0.00 | 0.00 | 67 | 1001.1 |
| 20260902220517 | 63 | 135 | 4.0 | 15.0 | 0.00 | 0.00 | 0.00 | 65 | 1001.2 |
| 20260902215516 | 64 | 90 | 6.0 | 20.0 | 0.00 | 0.00 | 0.00 | 63 | 1001.0 |
| 20260902214516 | 65 | 158 | 5.0 | 22.0 | 0.00 | 0.00 | 0.00 | 61 | 1001.0 |
| 20260902213516 | 65 | 180 | 4.0 | 12.0 | 0.00 | 0.00 | 0.00 | 60 | 1001.1 |
| 20260902212516 | 66 | 180 | 6.0 | 20.0 | 0.00 | 0.00 | 0.00 | 58 | 1001.0 |
| 20260902211516 | 67 | 113 | 3.0 | 13.0 | 0.00 | 0.00 | 0.00 | 57 | 1001.0 |
| 20260902210516 | 67 | 158 | 3.0 | 9.0 | 0.00 | 0.00 | 0.00 | 58 | 1001.1 |
| 20260902205516 | 68 | 158 | 2.0 | 9.0 | 0.00 | 0.00 | 0.00 | 59 | 1001.2 |
| 20260902204516 | 68 | 158 | 4.0 | 13.0 | 0.00 | 0.00 | 0.00 | 62 | 1001.2 |
| 20260902203536 | 68 | 135 | 3.0 | 10.0 | 0.00 | 0.00 | 0.00 | 61 | 1001.2 |
| 20260902202516 | 67 | 45 | 4.0 | 11.0 | 0.00 | 0.00 | 0.00 | 62 | 1001.6 |
| 20260902201516 | 67 | 203 | 3.0 | 10.0 | 0.00 | 0.00 | 0.00 | 63 | 1001.6 |
| 20260902200536 | 66 | 158 | 4.0 | 14.0 | 0.00 | 0.00 | 0.00 | 64 | 1001.6 |
| 20260902195516 | 66 | 180 | 4.0 | 17.0 | 0.00 | 0.00 | 0.00 | 65 | 1001.2 |
| 20260902194516 | 66 | 158 | 4.0 | 17.0 | 0.00 | 0.00 | 0.00 | 65 | 1001.2 |
| 20260902193516 | 66 | 180 | 4.0 | 15.0 | 0.00 | 0.00 | 0.00 | 65 | 1001.3 |
| 20260902192516 | 66 | 158 | 4.0 | 17.0 | 0.00 | 0.00 | 0.00 | 66 | 1001.5 |
| 20260902191516 | 66 | 158 | 5.0 | 15.0 | 0.00 | 0.00 | 0.00 | 65 | 1001.5 |
| 20260902190516 | 66 | 180 | 3.0 | 13.0 | 0.00 | 0.00 | 0.00 | 66 | 1001.6 |
| 20260902185516 | 66 | 158 | 4.0 | 14.0 | 0.00 | 0.00 | 0.00 | 66 | 1001.9 |
| 20260902184516 | 65 | 180 | 2.0 | 12.0 | 0.00 | 0.00 | 0.00 | 68 | 1001.9 |
| 20260902183516 | 65 | 158 | 3.0 | 11.0 | 0.00 | 0.00 | 0.00 | 68 | 1002.3 |
| 20260902182516 | 64 | 158 | 3.0 | 14.0 | 0.00 | 0.00 | 0.00 | 69 | 1002.4 |
| 20260902181515 | 64 | 180 | 3.0 | 12.0 | 0.00 | 0.00 | 0.00 | 68 | 1002.4 |
| 20260902180515 | 64 | 158 | 4.0 | 12.0 | 0.00 | 0.00 | 0.00 | 69 | 1002.6 |
| 20260902175516 | 64 | 180 | 4.0 | 13.0 | 0.00 | 0.00 | 0.00 | 69 | 1002.6 |
| 20260902174536 | 64 | 158 | 4.0 | 17.0 | 0.00 | 0.00 | 0.00 | 68 | 1002.6 |
| 20260902173556 | 63 | 180 | 3.0 | 20.0 | 0.00 | 0.00 | 0.00 | 69 | 1002.8 |
| 20260902172516 | 63 | 180 | 5.0 | 18.0 | 0.00 | 0.00 | 0.00 | 71 | 1002.4 |
| 20260902171515 | 63 | 135 | 3.0 | 13.0 | 0.00 | 0.00 | 0.00 | 71 | 1002.4 |
| 20260902170515 | 62 | 158 | 4.0 | 14.0 | 0.00 | 0.00 | 0.00 | 73 | 1002.7 |
| 20260902165516 | 62 | 158 | 3.0 | 7.0 | 0.00 | 0.00 | 0.00 | 73 | 1002.7 |
| 20260902164516 | 62 | 158 | 5.0 | 12.0 | 0.00 | 0.00 | 0.00 | 76 | 1002.7 |
| 20260902163515 | 62 | 158 | 3.0 | 10.0 | 0.00 | 0.00 | 0.00 | 76 | 1002.8 |
| 20260902162516 | 62 | 203 | 2.0 | 10.0 | 0.00 | 0.00 | 0.00 | 76 | 1002.9 |
| 20260902161519 | 62 | 135 | 5.0 | 14.0 | 0.00 | 0.00 | 0.00 | 77 | 1002.9 |
| 20260902160515 | 62 | 158 | 4.0 | 16.0 | 0.00 | 0.00 | 0.00 | 77 | 1003.1 |
| 20260902155516 | 61 | 158 | 4.0 | 12.0 | 0.00 | 0.00 | 0.00 | 78 | 1003.2 |
| 20260902154516 | 61 | 180 | 3.0 | 11.0 | 0.00 | 0.00 | 0.00 | 79 | 1003.2 |
| 20260902153515 | 61 | 180 | 5.0 | 18.0 | 0.00 | 0.00 | 0.00 | 78 | 1003.2 |
| 20260902152515 | 60 | 180 | 3.0 | 17.0 | 0.00 | 0.00 | 0.00 | 79 | 1003.5 |
| 20260902151515 | 60 | 203 | 4.0 | 11.0 | 0.00 | 0.00 | 0.00 | 81 | 1003.5 |
| 20260902150535 | 59 | 158 | 4.0 | 15.0 | 0.00 | 0.00 | 0.00 | 83 | 1003.8 |
| 20260902145555 | 58 | 180 | 0.0 | 4.0 | 0.00 | 0.00 | 0.00 | 85 | 1003.9 |
| 20260902144516 | 57 | 203 | 3.0 | 7.0 | 0.00 | 0.00 | 0.00 | 87 | 1003.9 |
| 20260902143517 | 56 | 225 | 0.0 | 1.0 | 0.00 | 0.00 | 0.00 | 87 | 1004.1 |
| 20260902142517 | 57 | 225 | 0.0 | 0.0 | 0.00 | 0.00 | 0.00 | 87 | 1004.2 |
| 20260902141517 | 57 | 225 | 0.0 | 0.0 | 0.00 | 0.00 | 0.00 | 86 | 1004.2 |
| 20260902140517 | 57 | 225 | 0.0 | 0.0 | 0.00 | 0.00 | 0.00 | 86 | 1004.1 |
| 20260902135517 | 57 | 225 | 0.0 | 2.0 | 0.00 | 0.00 | 0.00 | 85 | 1004.0 |
| 20260902134517 | 57 | 180 | 2.0 | 13.0 | 0.00 | 0.00 | 0.00 | 87 | 1004.0 |